Погода в Джеламе

Пакистан     32°55′56″N   73°43′02″E
темп.,
°C
ветер,
м/с
пор.,
м/с
влажн.,
%
обл.,
%
осадки,
мм/ч
давл.,
гПа
погр.,
м
29 ноября, пн
пн2923:00+15ссз22350 0.0 101911
02:00+14с22380 0.0 101911
05:00+13ссз22425 0.0 101912
08:00+15ссз24397 0.0 102193
11:00+22зсз3424100 0.0 1021587
14:00+25зсз4519100 0.0 10171158
17:00+20сз442735 0.0 101733
20:00+16сз333595 0.0 101824
30 ноября, вт
вт3023:00+15сз3338100 0.0 101823
02:00+14сз224185 0.0 101618
05:00+13сз224199 0.0 101616
08:00+15сз2234100 0.0 101773
11:00+21сз222186 0.0 1017483
14:00+24з22185 0.0 1014927
17:00+20ю01250 0.0 101411
20:00+17св11290 0.0 101611
1 декабря, ср
ср123:00+15ссв11330 0.0 101710
02:00+14ссв11360 0.0 101710
05:00+13с113899 0.0 101710
08:00+14с11360 0.0 101917
11:00+21з1123100 0.0 1019436
14:00+23ююз2119100 0.0 1016903
17:00+19ююв1125100 0.0 101611
20:00+17всв11305 0.0 101811
2 декабря, чт
чт223:00+15с113357 0.0 101811
02:00+13ссз113770 0.0 101710
05:00+12ссз22380 0.0 101712
08:00+14ссз24320 0.0 101878
11:00+22сз34180 0.0 1018581
14:00+25зсз33150 0.0 10151011
17:00+20зсз33220 0.0 101416
20:00+16ссз22260 0.0 101611
3 декабря, пт
пт323:00+14ссз22290 0.0 101710
02:00+13ссз22310 0.0 101610
05:00+12ссз22320 0.0 101610
08:00+14с12290 0.0 101825
11:00+21сз22170 0.0 1018465
14:00+25зсз22140 0.0 1015847
17:00+20зюз112057 0.0 101411
20:00+17с112412 0.0 101711